Abingdon, VA

1:01 PM EST on December 05, 2019 (GMT -0500)
Virginia Highlands

Weather History for KVJI - November, 2019

Change the Weather History Date:

Wednesday, November 20, 2019

  Actual Average (WUND) Record (WUND)
Temperature  
Mean Temperature 42 °F -  
Max Temperature 49 °F - - (-1)
Min Temperature 34 °F - - (-1)
Degree Days  
Heating Degree Days 24    
Moisture  
Dew Point 34 °F    
Average Humidity 76    
Maximum Humidity 93    
Minimum Humidity 51    
Precipitation  
Precipitation 0.03 in - - ()
Sea Level Pressure  
Sea Level Pressure 30.14 in    
Wind  
Wind Speed 4 mph (NW)    
Max Wind Speed 9 mph    
Max Gust Speed -    
Visibility 9 miles    
Events Rain    
Averages and records for this station are not official NWS values.
T = Trace of Precipitation, MM = Missing Value Source: NWS Daily Summary

Daily Weather History Graph

Daily Weather History Graph

Search for Another Location

Airport or City:

Astronomy

Nov. 20, 2019 Rise Set
Actual Time 7:10 AM EST 5:16 PM EST
Civil Twilight 6:43 AM EST 5:44 PM EST
Nautical Twilight 6:11 AM EST 6:15 PM EST
Astronomical Twilight 5:40 AM EST 6:46 PM EST
Moon 12:09 AM EST (11/20) 1:58 PM EST (11/20)
Length of Visible Light 11h 00m
Length of Day
10h 05m
Last Quarter, 41% of the Moon is Illuminated
Nov 20
Last Quarter
Nov 26
New
Dec 4
First Quarter
Dec 12
Full
Dec 18
Last Quarter

Hourly Weather History & Observations

Time (EST) Temp. Windchill Dew Point Humidity Pressure Visibility Wind Dir Wind Speed Gust Speed Precip Events Conditions
12:15 AM 41.0 °F 36.4 °F 33.8 °F 76% 29.93 in 10.0 mi WSW 6.9 mph - N/A   Overcast
12:35 AM 40.8 °F 35.6 °F 34.2 °F 77% 29.94 in 10.0 mi WSW 8.1 mph - N/A   Overcast
12:55 AM 40.6 °F 36.0 °F 34.3 °F 78% 29.95 in 10.0 mi West 6.9 mph - N/A   Overcast
1:15 AM 41.0 °F 38.0 °F 34.7 °F 78% 29.95 in 10.0 mi West 4.6 mph - N/A   Overcast
1:35 AM 41.0 °F 37.1 °F 34.9 °F 79% 29.95 in 10.0 mi West 5.8 mph - N/A   Overcast
1:55 AM 41.0 °F 38.0 °F 35.1 °F 79% 29.97 in 10.0 mi West 4.6 mph - N/A   Overcast
2:15 AM 40.6 °F 37.5 °F 35.2 °F 81% 29.98 in 10.0 mi WNW 4.6 mph - N/A   Overcast
2:35 AM 40.5 °F 37.3 °F 35.6 °F 83% 29.99 in 5.0 mi WNW 4.6 mph - N/A   Light Drizzle
2:55 AM 40.3 °F 38.2 °F 36.0 °F 85% 29.99 in 5.0 mi WNW 3.5 mph - N/A   Light Drizzle
3:15 AM 40.3 °F 37.1 °F 36.3 °F 86% 30.00 in 7.0 mi WNW 4.6 mph - N/A   Overcast
3:35 AM 40.3 °F 35.5 °F 36.3 °F 86% 30.01 in 7.0 mi WNW 6.9 mph - N/A   Overcast
3:55 AM 40.1 °F 36.9 °F 36.5 °F 87% 30.02 in 4.0 mi WNW 4.6 mph - N/A   Overcast
4:15 AM 40.1 °F 36.9 °F 36.9 °F 88% 30.02 in 5.0 mi WNW 4.6 mph - N/A   Overcast
4:35 AM 40.1 °F 38.0 °F 37.4 °F 90% 30.03 in 3.0 mi WNW 3.5 mph - N/A Rain Light Rain
4:55 AM 40.1 °F - 37.6 °F 91% 30.05 in 3.0 mi Calm Calm - 0.01 in Rain Light Rain
5:15 AM 40.3 °F 38.2 °F 37.9 °F 91% 30.05 in 2.0 mi West 3.5 mph - 0.01 in   Drizzle
5:35 AM 40.3 °F 38.2 °F 38.3 °F 93% 30.06 in 1.8 mi West 3.5 mph - 0.02 in   Light Drizzle
5:55 AM 40.3 °F 37.1 °F 38.3 °F 93% 30.07 in 3.0 mi West 4.6 mph - 0.02 in   Overcast
6:15 AM 40.3 °F 38.2 °F 38.3 °F 93% 30.08 in 3.0 mi WNW 3.5 mph - N/A   Overcast
6:35 AM 40.3 °F - 38.3 °F 93% 30.09 in 5.0 mi Calm Calm - N/A   Overcast
6:55 AM 40.1 °F - 38.3 °F 93% 30.09 in 7.0 mi Calm Calm - N/A   Overcast
7:15 AM 40.3 °F - 38.3 °F 93% 30.11 in 7.0 mi Calm Calm - N/A   Overcast
7:35 AM 40.3 °F 36.3 °F 37.9 °F 91% 30.12 in 10.0 mi WNW 5.8 mph - N/A   Overcast
7:55 AM 40.6 °F 38.6 °F 37.8 °F 89% 30.13 in 7.0 mi WNW 3.5 mph - N/A   Overcast
8:55 AM 42.1 °F 39.2 °F 37.4 °F 83% 30.15 in 10.0 mi North 4.6 mph - N/A   Overcast
9:15 AM 42.6 °F 40.9 °F 36.9 °F 80% 30.16 in 10.0 mi North 3.5 mph - N/A   Mostly Cloudy
9:35 AM 43.0 °F - 35.6 °F 75% 30.16 in 10.0 mi Calm Calm - N/A   Mostly Cloudy
9:55 AM 44.4 °F 41.2 °F 35.2 °F 70% 30.17 in 10.0 mi NW 5.8 mph - N/A   Mostly Cloudy
10:15 AM 43.3 °F 38.1 °F 34.9 °F 72% 30.19 in 10.0 mi WNW 9.2 mph - N/A   Mostly Cloudy
10:35 AM 45.3 °F 42.3 °F 34.7 °F 66% 30.19 in 10.0 mi NNW 5.8 mph - N/A   Scattered Clouds
10:55 AM 44.8 °F 40.4 °F 34.0 °F 66% 30.20 in 10.0 mi NNW 8.1 mph - N/A   Mostly Cloudy
11:15 AM 45.3 °F 41.1 °F 33.8 °F 64% 30.19 in 10.0 mi NNW 8.1 mph - N/A   Overcast
11:35 AM 44.6 °F 43.1 °F 33.8 °F 66% 30.19 in 10.0 mi NNW 3.5 mph - N/A   Mostly Cloudy
11:55 AM 47.5 °F - 32.5 °F 56% 30.18 in 10.0 mi Calm Calm - N/A   Scattered Clouds
12:15 PM 45.9 °F 42.3 °F 33.1 °F 61% 30.18 in 10.0 mi WNW 6.9 mph - N/A   Mostly Cloudy
12:35 PM 48.2 °F - 30.9 °F 51% 30.19 in 10.0 mi NW 3.5 mph - N/A   Mostly Cloudy
12:55 PM 47.5 °F - 33.1 °F 57% 30.19 in 10.0 mi NW 6.9 mph - N/A   Overcast
1:35 PM 48.4 °F - 31.6 °F 52% 30.19 in 10.0 mi NNW 4.6 mph - N/A   Overcast
1:55 PM 48.2 °F - 31.6 °F 53% 30.19 in 10.0 mi North 3.5 mph - N/A   Overcast
2:15 PM 49.5 °F - 31.8 °F 51% 30.19 in 10.0 mi North 4.6 mph - N/A   Overcast
2:35 PM 49.1 °F - 31.6 °F 51% 30.19 in 10.0 mi NW 6.9 mph - N/A   Overcast
2:55 PM 48.6 °F - 31.8 °F 52% 30.19 in 10.0 mi North 3.5 mph - N/A   Mostly Cloudy
3:15 PM 48.4 °F - 32.0 °F 53% 30.19 in 10.0 mi West 6.9 mph - N/A   Mostly Cloudy
3:35 PM 48.6 °F - 31.8 °F 52% 30.19 in 10.0 mi NNW 4.6 mph - N/A   Mostly Cloudy
3:55 PM 47.8 °F - 31.5 °F 53% 30.20 in 10.0 mi NW 4.6 mph - N/A   Mostly Cloudy
4:15 PM 47.5 °F - 31.5 °F 54% 30.20 in 10.0 mi NW 3.5 mph - N/A   Mostly Cloudy
4:35 PM 47.3 °F - 32.0 °F 55% 30.20 in 10.0 mi Calm Calm - N/A   Scattered Clouds
4:55 PM 46.4 °F 44.3 °F 33.8 °F 62% 30.21 in 10.0 mi WSW 4.6 mph - N/A   Scattered Clouds
5:15 PM 45.5 °F - 34.5 °F 65% 30.21 in 10.0 mi Calm Calm - N/A   Scattered Clouds
5:35 PM 43.5 °F - 32.9 °F 66% 30.22 in 10.0 mi Calm Calm - N/A   Clear
5:55 PM 41.9 °F - 33.3 °F 71% 30.23 in 10.0 mi Calm Calm - N/A   Clear
6:15 PM 40.8 °F - 33.3 °F 74% 30.23 in 10.0 mi Calm Calm - N/A   Clear
6:35 PM 41.0 °F - 34.0 °F 76% 30.23 in 10.0 mi Calm Calm - N/A   Clear
6:55 PM 40.1 °F - 33.6 °F 78% 30.24 in 10.0 mi Calm Calm - N/A   Clear
7:35 PM 38.3 °F - 32.7 °F 80% 30.24 in 10.0 mi Calm Calm - N/A   Clear
7:55 PM 37.2 °F - 32.2 °F 82% 30.25 in 10.0 mi Calm Calm - N/A   Clear
8:15 PM 37.8 °F - 32.9 °F 83% 30.25 in 10.0 mi Calm Calm - N/A   Clear
8:55 PM 36.5 °F - 33.1 °F 87% 30.25 in 10.0 mi Calm Calm - N/A   Clear
9:15 PM 35.8 °F - 32.0 °F 86% 30.25 in 10.0 mi Calm Calm - N/A   Clear
9:35 PM 34.5 °F - 31.6 °F 89% 30.26 in 10.0 mi Calm Calm - N/A   Clear
9:55 PM 35.1 °F - 32.0 °F 89% 30.26 in 10.0 mi Calm Calm - N/A   Clear
10:35 PM 35.2 °F - 32.0 °F 88% 30.26 in 10.0 mi Calm Calm - N/A   Clear
10:55 PM 35.1 °F - 32.0 °F 89% 30.26 in 10.0 mi Calm Calm - N/A   Clear
11:35 PM 35.2 °F - 32.2 °F 89% 30.26 in 10.0 mi Calm Calm - N/A   Clear
11:55 PM 35.1 °F 30.1 °F 32.0 °F 89% 30.26 in 10.0 mi East 5.8 mph - N/A   Clear